Location: C�an Torras
(41.5052°N, 1.9280°E)
Time: 18:13:37
(UTC+00:00)

Feng Yun 1-1 Rocket - Pass Details

Date: 20 January 2021
Orbit: 830 x 933 km, 99.2° (Epoch: 02 March)

Event Time Altitude Azimuth Distance (km) Brightness Sun altitude
Rises 17:49:39 0° 158° (SSE) 3,362 7.3 -10.6°
Reaches altitude 10° 17:51:59 10° 156° (SSE) 2,437 6.5 -11.0°
Maximum altitude 17:57:21 72° 73° (ENE) 887 4.1 -12.0°
Drops below altitude 10° 18:02:51 10° 350° (N) 2,499 6.6 -13.0°
Sets 18:05:16 0° 348° (NNW) 3,454 7.4 -13.4°
